Weather Roundup
Issued by NWS

Home | Current Version | Previous Version | Graphics & Text | Print | Product List | Glossary Off
Versions: 1 2 3 4 5 6 7 8 9 10 11 12 13 14 15 16 17 18 19 20 21 22 23 24 25 26 27 28 29 30 31 32 33 34 35 36 37 38 39 40 41 42 43 44 45 46 47 48 49 50

000
NZUS93 KARX 182110
HRRWXR

CURRENT HOURLY OBSERVATIONS ACROSS
MUCH OF THE UPPER MISSISSIPPI VALLEY
NATIONAL WEATHER SERVICE LA CROSSE WI
300 PM CST SAT NOV 18 2017


...SOUTHEAST MINNESOTA...


CITY           SKY/WX    TMP DP  RH WIND       PRES   REMARKS
ROCHESTER      PTSUNNY   37  26  64 NW24      29.80R WCI  26
ROCHESTER/MAYO MOCLDY    37  24  59 W24G35    29.79R WCI  25
WINONA         SUNNY     39  28  65 NW17G23   29.78R WCI  30
AUSTIN         MOSUNNY   36  23  60 NW20G29   29.83R WCI  25
ALBERT LEA     PTSUNNY   34  21  60 NW16G22   29.86R WCI  23
DODGE CENTER   MOSUNNY   34  23  64 NW16G25   29.82R WCI  23
PRESTON        SUNNY     37  26  63 NW20G31   29.78R WCI  27
OWATONNA       PTSUNNY   34  25  69 W22       29.86R WCI  22
FARIBAULT      PTSUNNY   34  21  60 W18G28    29.87R WCI  23
$$

...ELSEWHERE IN MINNESOTA...


CITY           SKY/WX    TMP DP  RH WIND       PRES   REMARKS
MINNEAPOLIS    MOSUNNY   33  20  58 NW24G30   29.87R WCI  20
INTNL FALLS    LGT SNOW  18   9  68 NW15G25   29.88R WCI   4
DULUTH         PTSUNNY   24  15  68 NW22G28   29.80R WCI   9
RED WING       MOSUNNY   37  19  48 NW12G21   29.82R WCI  30
REDWOOD FALLS  SUNNY     32  16  51 NW18G28   29.96R WCI  20
MANKATO        MOSUNNY   32  20  61 NW20G31   29.91R WCI  20
WORTHINGTON    SUNNY     34  18  52 NW23G32   29.97R WCI  22
FAIRMONT       MOSUNNY   32  21  64 NW25G32   29.93R WCI  19
$$

...SOUTHWEST WISCONSIN...


CITY           SKY/WX    TMP DP  RH WIND       PRES   REMARKS
LA CROSSE      MOSUNNY   44  29  55 NW15      29.75R
PRAIRIE DU CHI SUNNY     43  29  57 NW12G25   29.73R
BOSCOBEL       SUNNY     44  30  57 NW10      29.71R
LONE ROCK      MOSUNNY   41  32  70 NW14G24   29.69R
PLATTEVILLE    CLOUDY    40  35  80 NW17G24   29.68R WCI  31
FORT MC COY    MOSUNNY   40  30  67 NW13      29.72S WCI  33
CAMP DOUGLAS   MOSUNNY   41  30  65 NW17      29.69R
MAUSTON-NEW LI PTCLDY    40  30  68 NW9G17    29.68R WCI  34
VIROQUA        FAIR      40  32  73 NW14G23   29.69R WCI  32
WIS DELLS      CLOUDY    38  30  74 NW13G20   29.66R WCI  30
$$

...ELSEWHERE IN WISCONSIN...


CITY           SKY/WX    TMP DP  RH WIND       PRES   REMARKS
MILWAUKEE      CLOUDY    40  34  79 N16G29    29.55R WCI  31
MADISON        CLOUDY    38  32  79 NW13G22   29.63R WCI  30
GREEN BAY      CLOUDY    38  31  76 N14       29.62R WCI  30
EAU CLAIRE     SUNNY     37  23  56 NW15      29.77R WCI  28
BLACK RVR FLS  FAIR      41  26  56 NW9       29.72R
MEDFORD        CLOUDY    34  28  78 NW12      29.69S WCI  25
WAUSAU         CLOUDY    35  27  72 NW14G22   29.66R WCI  26
WIS RAPIDS     MOSUNNY   39  28  64 N14G24    29.68S WCI  31
MARSHFIELD     CLOUDY    36  28  73 NW20      29.67S WCI  25
RICE LAKE      SUNNY     33  20  59 W16       29.81R WCI  23
$$

...NORTHEAST IOWA...


CITY           SKY/WX    TMP DP  RH WIND       PRES   REMARKS
WATERLOO       SUNNY     42  28  57 NW25G32   29.79R
DUBUQUE        PTSUNNY   40  32  73 NW18      29.70R WCI  31
DECORAH        SUNNY     41  30  65 NW14G26   29.74R
MASON CITY     PTSUNNY   35  25  66 NW26G33   29.88R WCI  22
CHARLES CITY   MOSUNNY   39  30  70 NW23G29   29.82R WCI  29
OELWEIN        SUNNY     41  36  81 NW26G33   29.77R
$$

...ELSEWHERE IN IOWA...


CITY           SKY/WX    TMP DP  RH WIND       PRES   REMARKS
DES MOINES     MOSUNNY   45  28  51 NW21G35   29.89R
IOWA CITY      MOSUNNY   45  33  63 NW17G33   29.77R
FORT DODGE     CLOUDY    38  25  59 NW14G26   29.93R WCI  30
MARSHALLTOWN   SUNNY     41  30  65 NW28G33   29.84R
CEDAR RAPIDS   SUNNY     43  32  65 NW25G35   29.76R
$$

...NORTHERN ILLINOIS...


CITY           SKY/WX    TMP DP  RH WIND       PRES   REMARKS
CHICAGO-OHARE  CLOUDY    39  35  86 N18G28    29.53R WCI  30
CHICAGO-MIDWAY CLOUDY    40  37  89 N26G33    29.53R WCI  29
MOLINE         CLOUDY    42  34  73 NW22G30   29.69R
ROCKFORD       CLOUDY    38  34  85 N18G30    29.62R WCI  28
PEORIA         CLOUDY    41  37  86 N16G32    29.64R
$$

NOTE: "FAIR" INDICATES FEW OR NO CLOUDS BELOW 12,000 FEET WITH NO
SIGNIFICANT WEATHER AND/OR OBSTRUCTIONS TO VISIBILITY. WIND
SPEEDS ARE IN MILES-PER-HOUR.




USA.gov is the U.S. government's official web portal to all federal, state and local government web resources and services.